GFSFLT1_850_temp_030.txt.gz
Temp
16 16 15 16 16 15 14 13 13 13 13 13 13 13 13 13 12 12 12 11 12 12 11 11 11 11 10 9 8 8 7 7
17 16 16 16 15 15 15 15 14 14 13 13 13 13 13 12 12 12 12 12 12 11 11 11 10 9 8 8 8 7 7 6
17 17 16 16 16 15 15 15 15 14 14 13 14 13 13 12 12 11 11 11 11 11 11 10 10 10 9 8 7 7 5 4
17 17 17 16 15 16 15 15 15 15 14 13 13 13 12 11 11 10 11 10 10 10 10 10 9 8 8 6 5 4 3 3
18 17 17 17 16 16 15 15 13 13 13 12 13 12 11 11 11 10 10 9 10 10 10 9 8 7 6 6 5 4 3 3
18 18 17 17 16 15 16 13 12 12 12 12 12 12 12 11 10 10 9 9 9 9 9 8 6 6 6 5 5 4 3 2
17 17 17 16 16 15 14 13 12 11 12 12 12 12 11 10 10 9 9 9 8 7 6 6 6 5 5 5 4 2 2 1
17 17 16 16 15 15 14 14 13 12 11 11 11 11 11 10 10 9 8 8 7 7 6 5 5 4 4 3 2 2 1 1
17 17 16 16 15 14 12 13 13 12 12 11 11 11 10 10 9 8 8 7 6 5 5 4 4 3 3 2 2 1 0 0
17 17 16 16 15 13 14 13 13 12 12 11 10 10 9 9 8 8 7 6 5 4 4 4 3 3 2 2 1 0 0 -0
17 17 16 14 13 14 13 13 13 12 11 10 10 9 9 8 8 7 6 5 4 5 4 4 3 2 1 1 0 -0 -0 -1
17 16 15 15 14 13 13 13 12 12 11 11 10 9 8 8 7 6 5 4 3 4 4 3 2 1 1 0 -1 -1 -1 -1
17 17 16 15 14 14 14 13 13 13 12 11 10 9 8 8 7 6 5 3 3 3 3 2 2 1 1 0 -1 -1 -1 -1
17 16 16 16 15 15 14 14 13 12 11 10 9 8 8 7 6 5 4 3 3 2 2 2 2 1 0 -0 -1 -1 -2 -2
17 16 16 16 15 15 14 12 11 11 10 9 8 8 7 6 5 4 3 3 2 1 2 2 1 0 -0 -1 -1 -1 -2 -3
16 15 15 15 14 13 12 12 11 10 10 9 8 8 7 5 4 4 3 2 1 0 1 1 1 0 -0 -1 -1 -2 -2 -3
17 17 15 15 14 13 12 11 11 10 9 8 7 6 5 5 4 2 2 1 -1 1 0 1 0 -0 -1 -1 -2 -2 -3 -3
15 15 15 15 15 14 13 12 11 9 8 7 6 5 5 3 2 1 -0 -1 -1 0 1 -0 -1 -1 -1 -2 -2 -3 -3 -3
14 14 14 14 14 13 12 10 9 8 7 6 5 4 3 2 -0 -1 -0 -0 -1 1 -0 -1 -1 -2 -2 -2 -3 -3 -4 -4

GFSFLT1_850_temp_033.txt.gz
Temp
15 15 15 14 14 13 14 13 13 13 13 13 12 11 11 12 12 12 12 12 11 11 11 11 11 10 10 10 9 8 8 8
16 15 15 14 13 13 13 13 13 13 13 13 12 12 12 12 12 12 11 11 11 11 11 10 10 10 10 9 9 8 8 8
15 15 15 14 14 13 13 13 13 13 13 13 13 12 12 12 11 11 11 11 11 11 10 10 10 10 9 9 9 8 7 6
16 16 16 15 15 15 15 14 14 13 13 13 12 12 12 11 11 11 10 11 10 9 9 9 9 9 9 9 8 7 6 5
16 16 16 16 16 16 16 15 15 14 13 13 12 13 12 12 12 11 10 9 9 9 9 9 9 7 7 7 6 6 5 4
16 16 16 16 15 15 15 15 14 14 13 12 13 11 11 12 11 10 9 9 9 9 9 8 6 7 7 6 5 4 4 3
17 17 16 16 15 15 15 14 15 13 13 14 12 10 11 12 11 9 9 9 9 8 8 7 6 5 5 5 4 4 2 1
16 16 16 16 16 16 15 15 13 12 12 11 11 11 11 11 11 10 9 9 8 7 7 6 5 5 5 4 3 2 2 1
17 17 16 15 16 16 14 15 15 13 12 11 11 11 10 10 10 9 8 8 7 6 5 5 4 4 4 3 2 2 1 0
17 17 16 16 16 16 17 15 14 13 13 12 12 11 11 11 8 8 8 7 5 5 5 4 4 4 3 2 2 1 0 -0
17 16 16 16 17 16 16 15 14 13 12 12 12 12 11 10 9 9 8 7 6 5 4 2 3 3 2 2 1 1 -0 -1
18 18 17 17 17 16 15 14 13 13 12 12 12 11 10 9 8 8 8 7 6 5 4 3 3 2 2 1 1 0 -1 -1
19 18 17 17 17 16 15 14 13 13 12 11 10 10 9 9 8 8 7 6 5 4 3 3 2 2 2 1 1 -0 -1 -1
16 16 17 16 16 15 15 13 12 12 11 11 10 9 9 9 8 8 8 6 4 3 3 2 2 2 1 1 0 -0 -1 -1
17 16 16 16 15 14 13 12 12 11 11 11 10 10 10 9 8 7 6 4 3 3 1 1 0 1 1 0 -0 -1 -1 -2
16 15 16 16 14 13 12 12 11 11 11 11 10 10 9 8 7 5 4 3 2 1 -0 -1 -1 0 0 -0 -1 -1 -2 -2
15 16 15 15 14 13 12 12 11 11 11 10 9 7 6 5 4 4 2 1 0 -1 -1 0 -1 0 -0 -1 -1 -2 -2 -3
16 15 15 15 14 13 13 12 11 10 9 8 7 6 6 4 3 2 0 -1 -1 -0 -0 -1 -1 -1 -1 -1 -2 -2 -3 -3
14 14 14 14 13 12 12 11 9 8 7 6 6 5 4 1 0 -1 -1 -1 0 -0 -1 -1 -1 -1 -2 -2 -2 -2 -3 -3

GFSFLT1_850_temp_036.txt.gz
Temp
15 15 14 14 13 13 13 13 13 13 12 12 11 12 12 12 12 12 12 12 11 11 10 10 10 10 10 9 9 8 8 7
16 15 14 14 13 14 14 13 13 13 12 12 12 12 12 12 11 12 12 12 11 10 9 9 9 9 9 8 7 7 6 6
16 16 15 15 15 14 14 13 13 13 13 12 12 12 12 11 11 12 11 11 10 9 9 9 9 8 8 7 7 6 7 6
16 16 16 16 15 15 14 14 14 13 13 13 13 12 11 11 11 11 11 10 9 9 9 9 8 8 7 7 6 6 7 7
16 16 16 16 15 15 14 14 14 13 13 13 13 13 12 12 11 11 10 9 9 9 8 8 8 7 7 7 7 7 7 6
18 17 17 16 16 15 15 14 14 13 13 13 12 12 12 11 11 10 9 9 8 8 8 8 7 7 7 6 6 7 6 6
18 18 17 16 16 16 15 15 15 14 13 13 12 12 11 10 10 9 9 9 8 8 8 7 7 6 6 6 7 5 5 4
18 18 17 17 17 16 15 15 15 14 14 13 12 12 10 9 10 10 9 9 9 8 8 8 6 6 7 5 5 5 4 3
18 18 18 17 17 16 16 15 14 14 14 14 12 11 10 9 9 9 9 10 9 8 8 6 5 6 6 4 4 4 3 2
19 18 18 17 17 17 16 15 15 16 15 13 11 10 11 10 9 9 9 9 9 8 7 7 5 4 4 4 4 3 2 1
18 18 18 18 17 17 17 16 16 16 15 14 13 12 12 11 10 10 9 8 8 7 6 6 4 3 3 3 3 2 1 0
19 18 18 18 17 16 16 16 15 15 14 13 12 11 12 12 12 11 9 8 7 6 6 5 3 3 3 2 2 1 0 -0
17 17 17 17 18 17 16 16 16 15 15 13 12 12 12 11 10 10 9 8 7 6 5 4 3 2 2 1 1 0 -0 -1
18 17 18 17 16 16 16 16 16 15 15 14 13 11 10 10 10 9 8 7 5 4 4 3 2 1 0 -1 1 0 -0 -1
18 17 17 16 16 16 16 16 16 15 14 14 11 10 9 9 8 7 7 5 5 4 3 2 1 -0 -0 -0 0 -0 -1 -1
17 16 16 15 15 15 15 15 14 13 11 9 9 9 8 8 8 7 6 4 3 2 1 0 -1 -0 -0 -0 -0 -0 -1 -1
14 14 14 13 13 13 13 13 12 11 10 9 8 8 7 7 6 6 5 4 2 0 -1 -1 -0 -1 -2 -2 -1 -1 -1 -2
14 15 15 14 14 13 12 11 10 9 8 8 7 6 5 5 4 3 2 1 -0 -1 -1 -1 -1 -1 -2 -1 -1 -2 -2 -2
14 14 14 14 14 14 13 11 9 8 7 6 5 5 4 3 2 1 -1 -2 -1 -1 -0 -1 -2 -2 -1 -2 -2 -2 -3 -3

GFSFLT1_850_temp_039.txt.gz
Temp
14 14 13 13 13 12 12 12 13 12 12 12 12 12 12 12 12 12 12 12 12 11 11 10 10 10 10 9 9 9 8 8
14 14 14 14 14 13 13 12 13 12 12 13 12 12 12 12 12 12 12 12 11 11 10 10 9 9 9 8 8 8 8 7
15 15 14 14 14 14 13 13 13 13 13 13 12 12 12 12 12 12 11 11 11 10 10 9 9 9 8 8 8 8 7 6
15 15 15 15 15 14 14 13 13 13 13 13 12 12 12 12 12 11 11 11 11 10 9 9 9 9 8 8 7 7 6 5
17 16 16 15 15 15 14 14 14 13 13 13 13 12 12 12 12 11 11 11 10 9 9 9 8 8 7 7 6 6 5 5
17 17 17 17 16 16 15 14 14 14 14 13 13 12 12 12 11 11 10 10 10 9 9 8 8 8 7 6 6 5 6 6
17 17 17 17 17 16 16 15 14 14 14 14 13 12 12 11 11 10 10 10 9 9 8 8 8 7 6 6 6 7 6 5
19 18 18 17 17 17 16 15 15 15 14 14 13 13 12 11 11 10 10 10 9 9 8 8 7 6 6 6 6 6 5 4
19 19 19 19 18 18 17 15 16 14 13 14 14 13 12 11 10 10 10 9 9 8 8 7 6 6 6 6 6 5 4 4
18 18 19 19 18 18 18 17 15 15 14 15 14 13 13 12 10 10 9 9 9 8 7 6 6 6 6 5 4 4 3 3
18 18 17 17 17 16 16 16 16 15 15 15 14 14 13 10 10 10 9 8 8 8 7 6 5 5 5 4 3 2 2 2
19 19 18 17 16 16 16 15 15 16 16 15 14 14 13 12 12 11 10 9 8 7 6 5 5 3 3 2 2 1 0 1
19 19 19 18 18 17 17 17 16 16 15 15 14 14 13 13 12 11 9 8 7 6 5 5 3 2 2 1 1 0 0 0
19 19 18 17 17 17 16 16 16 15 15 15 14 14 13 12 10 10 9 8 7 5 5 4 3 2 1 0 -0 -1 -0 -0
17 16 16 17 16 16 16 16 15 15 15 14 13 11 9 9 9 9 8 8 5 5 4 3 1 1 -0 -1 -0 -1 -1 -1
14 14 14 14 15 14 14 14 13 12 11 11 10 9 9 8 8 7 6 5 4 3 3 2 1 -0 -1 -0 -1 -2 -1 -0
13 13 13 13 13 13 12 11 11 10 9 9 8 8 7 7 6 5 5 4 3 2 1 -0 -1 0 -1 -1 -1 -2 -1 -1
13 13 14 14 13 13 13 12 11 10 9 8 7 7 6 5 5 5 4 3 1 0 0 -0 -0 -0 -1 -1 -1 -2 -2 -1
13 13 13 13 13 13 12 11 10 9 8 6 5 5 5 4 3 2 1 1 1 0 -0 -1 -1 -1 -2 -2 -2 -2 -2 -2

GFSFLT1_850_temp_042.txt.gz
Temp
12 12 12 11 12 11 10 11 10 11 11 11 10 11 11 10 11 12 12 12 12 12 11 11 11 10 10 9 9 9 8 8
13 13 13 12 12 11 11 10 10 11 11 10 11 11 11 10 12 12 12 12 12 12 11 11 10 10 9 9 9 9 7 8
14 13 13 12 12 12 11 11 11 11 11 11 11 11 11 10 10 11 12 12 12 12 11 10 10 9 9 9 9 8 7 8
15 14 14 13 13 12 12 12 12 11 11 11 11 11 11 10 12 12 12 12 11 11 11 10 10 9 9 9 9 8 7 6
17 16 15 14 13 13 12 12 12 12 11 12 11 12 12 11 11 12 12 12 11 11 11 10 9 9 9 9 9 8 7 6
18 17 16 15 14 13 12 12 12 12 11 11 11 11 12 12 10 11 12 11 11 10 10 9 9 9 9 8 8 8 7 6
19 18 17 16 15 14 13 13 12 12 11 13 12 12 11 11 12 12 11 11 10 10 9 9 8 8 8 8 7 7 7 6
19 19 18 17 16 14 15 15 14 13 14 13 13 13 13 12 12 12 12 11 10 10 9 8 8 8 7 7 6 6 6 5
20 19 19 18 17 15 14 16 15 15 14 14 13 13 13 12 10 9 10 10 10 9 9 8 8 7 7 6 5 5 4 4
20 19 19 18 17 15 14 13 13 13 15 13 15 14 13 12 10 10 10 10 9 9 8 8 8 7 5 5 5 3 3 2
18 18 18 17 16 15 13 13 13 12 14 13 14 14 14 13 11 11 10 9 9 9 8 8 7 6 5 5 4 1 1 1
18 17 16 15 15 14 13 13 13 13 12 13 14 14 13 13 13 12 12 11 10 9 8 7 7 6 4 3 1 0 -0 1
18 17 16 16 16 14 13 13 13 12 12 11 13 13 13 13 13 12 11 10 9 8 8 7 6 4 3 2 0 -0 1 -0
17 16 16 15 15 14 13 14 12 12 13 14 14 14 14 13 12 11 10 9 9 8 6 5 3 3 2 1 -0 -1 -0 -1
18 16 15 14 14 14 14 14 15 15 14 13 13 12 11 10 10 9 8 8 7 7 5 3 2 2 1 -0 -1 -0 -0 -0
15 15 14 13 12 13 11 12 12 12 12 11 11 10 9 9 9 8 8 7 7 5 4 2 2 0 0 1 -1 -0 -1 -2
13 13 12 11 11 10 12 12 11 11 11 10 9 9 8 8 8 7 7 6 5 3 3 3 2 1 1 0 -1 -1 -1 -2
10 10 10 11 12 12 11 11 10 10 9 9 8 7 7 7 6 5 5 4 3 3 2 2 0 0 -0 -0 -1 -2 -3 -2
8 9 11 12 12 12 12 11 10 9 8 7 6 6 5 5 4 4 3 2 1 1 0 -0 -0 -0 -1 -1 -1 -2 -3 -3

GFSFLT1_850_temp_045.txt.gz
Temp
12 12 12 12 11 9 9 9 9 10 11 11 11 11 11 12 12 12 11 11 12 12 11 10 11 10 10 9 9 9 10 10
13 13 12 12 12 12 12 10 10 11 11 12 12 12 12 12 12 12 12 11 12 12 11 10 11 10 9 9 8 9 9 9
14 14 15 13 14 13 12 11 11 11 11 12 12 12 12 13 12 11 11 10 10 11 11 10 10 10 9 8 8 8 9 8
16 15 16 15 15 14 13 13 13 12 13 13 13 13 13 12 12 12 11 10 11 10 10 10 9 9 8 8 9 9 9 7
18 16 16 15 15 15 14 14 14 13 13 13 13 13 13 13 13 11 10 11 10 10 9 9 9 8 8 8 8 8 8 8
19 18 17 16 15 15 14 14 14 14 13 13 14 13 14 14 13 12 11 10 10 9 9 9 9 8 8 7 7 8 7 8
20 19 18 17 17 15 15 14 14 14 14 13 13 13 13 13 13 12 11 10 9 9 9 10 10 9 8 8 7 7 8 7
21 20 20 19 17 16 15 15 15 14 14 13 12 13 13 13 12 11 11 10 9 9 10 10 10 9 8 7 7 7 7 6
22 22 21 20 19 17 16 15 15 15 13 13 13 13 14 13 13 12 11 12 10 9 9 10 9 8 7 7 7 6 6 6
22 22 22 21 20 19 17 15 15 15 13 12 13 13 14 13 14 12 12 10 9 9 9 9 8 7 6 7 6 5 5 4
22 22 22 21 21 20 18 16 15 14 13 12 13 13 13 13 13 12 10 10 9 10 9 9 8 7 6 6 5 5 4 2
21 20 21 20 20 19 18 16 16 14 12 12 11 12 12 12 12 10 10 9 9 9 9 7 6 6 6 4 4 3 2 1
21 20 19 18 18 18 17 16 15 16 14 13 12 10 10 11 10 10 10 9 8 8 8 8 6 6 4 4 3 1 1 0
21 19 18 18 17 16 16 15 15 15 15 13 12 11 11 11 10 10 9 9 8 8 7 6 5 4 3 2 2 0 1 1
21 20 19 18 16 15 14 14 14 14 13 12 11 10 10 10 9 9 9 8 8 7 6 5 4 3 2 2 1 1 1 0
20 19 18 17 15 14 13 11 11 11 11 10 9 9 8 8 7 7 7 7 7 6 6 4 3 3 2 2 1 -1 -0 0
18 18 17 15 14 13 11 10 9 9 9 8 7 7 7 6 6 7 7 6 6 5 5 4 3 2 1 1 0 -0 -1 -0
16 15 14 13 12 11 10 9 8 8 7 6 6 6 7 7 6 6 5 5 4 3 2 2 1 0 -0 0 -0 -1 -1 -1
13 12 12 11 11 10 9 8 8 7 6 6 6 6 6 6 5 4 4 3 2 2 1 0 0 0 -0 -0 -0 -1 -1 -2